Hourly Data Report for October 13, 2016

All times are specified in Local Standard Time (LST). Add 1 hour to adjust for Daylight Saving Time where and when it is observed.

HALL BEACH A
NUNAVUT

68°46'33.000" N
81°14'33.000" W
9.10 m
2402354
71293
YUX

Related Data

No related data is available for this station

Download Data

Hourly Data (October 2016)
Hourly Data Report for October 13, 2016
Temp Definition
°C
Dew Point Temp Definition
°C
Rel Hum Definition
%
Wind Dir Definition
10's deg

Wind Spd Definition
km/h
Visibility Definition
km
Stn Press Definition
kPa
Hmdx Definition


Wind Chill Definition


Weather Definition


TIME
00:00 Legend Double Dagger -4.4 -8.3 75 9 11 16.1 101.16   -9 LegendNANA
01:00 Legend Double Dagger -4.4 -8.5 74 12 22 16.1 101.14   -11 LegendNANA
02:00 Legend Double Dagger -4.6 -8.4 75 11 18 16.1 101.13   -11 LegendNANA
03:00 Legend Double Dagger -4.7 -7.7 80 12 17 16.1 101.08   -11 LegendNANA
04:00 Legend Double Dagger -4.4 -7.2 81 9 11 16.1 101.06   -9 Snow
05:00 Legend Double Dagger -4.0 -6.2 85 12 8 9.7 101.04   -7 Snow
06:00 Legend Double Dagger -4.0 -5.2 92 8 39 11.3 101.01   -13 Snow
07:00 Legend Double Dagger -4.1 -6.6 83 11 35 16.1 101.00   -12 Snow
08:00 Legend Double Dagger -5.2 -7.9 81 9 37 16.1 101.00   -14 LegendNANA
09:00 Legend Double Dagger -5.4 -8.0 82 9 32 16.1 100.95   -14 LegendNANA
10:00 Legend Double Dagger -5.2 -8.0 81 8 34 16.1 100.92   -14 LegendNANA
11:00 Legend Double Dagger -5.5 -7.9 84 7 34 16.1 100.89   -14 LegendNANA
12:00 Legend Double Dagger -5.3 -7.5 85 6 34 16.1 100.86   -14 LegendNANA
13:00 Legend Double Dagger -5.1 -7.9 81 6 34 16.1 100.83   -14 LegendNANA
14:00 Legend Double Dagger -4.9 -6.9 86 6 34 11.3 100.82   -13 Snow
15:00 Legend Double Dagger -4.8 -6.6 87 7 30 14.5 100.82   -13 Snow
16:00 Legend Double Dagger -4.5 -6.2 88 6 22 16.1 100.81   -11 Snow
17:00 Legend Double Dagger -4.5 -6.2 88 6 21 16.1 100.80   -11 Snow
18:00 Legend Double Dagger -4.8 -6.7 86 7 22 16.1 100.78   -12 LegendNANA
19:00 Legend Double Dagger -5.2 -7.0 87 6 21 16.1 100.78   -12 LegendNANA
20:00 Legend Double Dagger -5.5 -6.6 92 5 18 16.1 100.78   -12 LegendNANA
21:00 Legend Double Dagger -5.6 -7.3 88 5 21 16.1 100.76   -12 LegendNANA
22:00 Legend Double Dagger -6.2 -7.9 88 3 22 16.1 100.74   -13 LegendNANA
23:00 Legend Double Dagger -7.0 -9.2 85 3 21 16.1 100.72   -14 LegendNANA

Notes on Data Quality.

Legend

  • E = Estimated
  • M = Missing
  • NA = Not Available
  • ‡ = Partner data that is not subject to review by the National Climate Archives
Date modified: